Location: *
(43.7476°S, 98.7513°E)
Time: 10:47:30
(UTC+00:00)

Daily predictions for brighter satellites

Satellite Brightness Start Highest point End
(mag) Time Altitude Azimuth Time Altitude Azimuth Time Altitude Azimuth
Cosmos 1174 4.4 13:25:03 10° SW 13:29:24 78° WNW 13:34:44 10° NNE
Iridium 82 4.2 13:27:55 10° S 13:31:09 82° E 13:34:15 10° N
ATLAS CENTAUR R/B 2.6 13:31:58 10° ENE 13:32:20 10° ENE 13:32:41 10° ENE
Cosmos 1766 4.3 13:30:26 10° NE 13:33:06 22° E 13:35:49 10° SE
CSL-04 Rocket 4.3 13:30:39 10° SSE 13:35:35 35° E 13:40:31 10° NNE
Meteor 1-18 Rocket 4.4 13:29:50 10° S 13:35:52 86° E 13:41:42 10° N
NOSS 0 Rocket 4.0 13:31:29 10° SSW 13:37:45 85° WNW 13:43:56 10° NNE
SL-4 R/B 2.7 13:41:50 10° WSW 13:45:43 44° NW 13:49:36 10° NNE
Cosmos 1151 Rocket 3.1 13:42:33 10° S 13:46:58 64° E 13:51:18 10° NNE
Cosmos 1536 2.6 13:44:28 10° N 13:48:10 70° E 13:51:56 10° SSE
ARIANE 6 FM1 Upper Stage 2.8 13:44:29 10° NW 13:48:52 86° NE 13:53:25 10° SE
Pegasus R/B 3.6 13:48:27 19° NE 13:49:03 29° ESE 13:50:18 10° S
Cosmos 1908 2.9 13:47:56 10° N 13:50:47 46° E 13:53:41 10° SSE
SL-16 R/B 3.6 13:50:42 10° S 13:55:28 26° SE 14:00:12 10° ENE
USA 267 4.1 13:52:02 10° SE 13:58:28 56° SSW 14:04:53 10° WNW
Cosmos 2297 Rocket 2.5 13:55:01 10° NNW 14:00:41 73° WSW 14:06:25 10° SSE
ATLAS 3B R/B 2.8 13:54:58 10° SW 14:01:13 66° WNW 14:07:40 10° NNE
ISS -3.8 13:59:12 10° NW 14:02:33 61° NE 14:05:57 10° ESE
Helios 1A 2.8 13:59:29 10° NNE 14:03:30 83° ESE 14:07:33 10° SSW
SL-14 R/B 3.2 14:00:23 10° S 14:04:12 66° E 14:07:33 13° NNE
Cosmos 1709 Rocket 4.0 13:59:45 10° N 14:05:55 69° E 14:12:16 10° SSE
OAO 3 Rocket 4.1 14:02:34 10° WNW 14:06:34 28° N 14:09:33 15° NE
Cosmos 1980 3.8 14:00:55 10° SSW 14:06:38 81° WNW 14:11:58 12° NNE
CSL-04 Debris 4.2 14:01:36 10° SSE 14:07:02 61° ENE 14:12:22 10° N
CZ-4B R/B 4.4 14:04:00 10° S 14:07:53 59° WSW 14:11:36 10° NNW
Okean O Rocket 3.1 14:05:22 10° SE 14:08:39 20° E 14:10:43 15° NE
Meteor 2-9 Rocket 4.3 14:03:28 10° N 14:08:45 56° E 14:14:14 10° SSE
Cosmos 1470 3.6 14:07:28 16° NE 14:09:27 26° E 14:12:26 10° SSE
Okean-O 4.2 14:06:59 10° SE 14:10:02 18° E 14:11:50 14° ENE
Cosmos 1745 Rocket 4.1 14:03:53 10° N 14:10:03 83° W 14:16:22 10° S
Cosmos 1271 Rocket 2.3 14:08:36 10° S 14:12:05 78° E 14:14:48 15° NNE
CZ-4B R/B 3.6 14:09:13 10° SSE 14:14:17 41° E 14:18:51 12° NNE
Cosmos 2219 4.2 14:12:47 14° NNE 14:16:32 26° ENE 14:21:14 10° SE
Resurs 01 Rocket 3.6 14:14:28 10° S 14:18:25 31° WSW 14:22:20 10° NW
Cosmos 2237 Rocket 2.4 14:13:41 10° SSW 14:19:25 70° WNW 14:24:27 13° NNE
CZ-4B DEB 4.2 14:15:20 10° SSE 14:20:51 70° ENE 14:26:17 10° N
Meteor 1-14 Rocket 4.2 14:15:57 10° N 14:21:31 88° W 14:27:11 10° S
OAO 2 Rocket 4.3 14:18:12 10° WNW 14:22:36 30° N 14:25:22 18° NE
CZ-4 R/B 1.7 14:23:16 10° S 14:27:05 63° WSW 14:30:54 10° NNW
Terra 2.2 14:26:23 10° SSE 14:30:57 44° E 14:34:03 19° NNE
ADEOS 3.6 14:27:26 10° SSE 14:32:43 69° ENE 14:37:51 10° N
Meteor 1-11 Rocket 3.7 14:28:04 10° N 14:33:37 69° E 14:39:12 10° SSE
USA 234 3.5 14:29:17 17° NNE 14:34:26 62° NW 14:40:58 10° SW
Feng Yun 1-1 Rocket 4.4 14:30:06 10° SSE 14:36:08 79° ENE 14:41:59 10° N
USA 186 1.2 14:35:53 10° SSE 14:38:43 77° E 14:40:02 28° N
Cosmos 2263 Rocket 2.2 14:35:38 10° N 14:41:13 61° ENE 14:46:50 10° SSE
Cosmos 724 4.2 14:35:31 10° NNW 14:41:15 79° ENE 14:47:06 10° SE
Meteor 1-13 Rocket 4.3 14:36:27 10° S 14:42:24 77° E 14:46:25 21° NNE
CZ-2C R/B 2.6 14:41:18 10° SSE 14:44:20 44° E 14:45:09 35° NE
BREEZE-M DEB (TANK) 2.7 14:40:47 10° WSW 14:48:20 61° NW 14:49:43 31° NNE
ERS-1 Rocket 2.9 14:43:31 10° SSE 14:48:36 73° ENE 14:52:33 17° N
Cosmos 2084 Rocket 4.4 14:49:15 26° ENE 14:49:28 26° ENE 14:52:59 10° ESE
Cosmos 1680 Rocket 4.0 14:48:23 23° NNE 14:51:15 42° ENE 14:56:17 10° SSE
Cosmos 2227 Rocket 2.6 14:46:05 10° NW 14:51:44 66° WSW 14:57:28 10° SSE
Cosmos 1515 Rocket 4.2 14:49:53 10° S 14:54:05 40° ESE 14:55:50 27° NE
Helios 1B rocket 4.4 14:54:22 10° ESE 14:55:09 11° E 14:55:09 11° E
MOS 1-B 4.5 14:51:47 10° SSE 14:57:33 57° ENE 15:01:13 22° N
USA 32 4.4 14:56:31 26° NNE 14:59:11 49° E 15:04:18 10° SSE
Cosmos 1975 3.6 14:58:36 13° NNW 15:01:47 45° WSW 15:05:25 10° S
USA 281 3.9 14:56:05 10° SE 15:02:03 34° ENE 15:04:48 25° NNE
SPOT 5 4.3 14:57:38 10° S 15:02:37 42° WSW 15:07:37 10° NW
ATLAS CENTAUR R/B 1.8 15:03:58 10° NW 15:06:45 40° SW 15:09:34 10° SSE
Cosmos 2074 Rocket 4.0 15:02:57 23° N 15:07:02 67° E 15:13:18 10° SSE
Cosmos 2181 Rocket 4.1 15:01:07 10° S 15:07:41 88° W 15:11:51 24° N
MOS 1 4.5 15:02:08 10° S 15:07:52 75° WSW 15:13:16 11° NNW
Spot 2 Rocket 3.6 15:03:02 10° SSE 15:08:09 57° E 15:10:38 29° NNE
MetOp-B 4.3 15:03:18 10° S 15:08:44 75° WSW 15:13:36 13° NNW
CZ-4C R/B 3.1 15:00:43 10° NNW 15:09:38 68° ENE 15:17:08 10° SE
Okean 2 4.5 15:06:36 10° SSE 15:10:02 28° ESE 15:10:54 26° E
Cosmos 1300 3.3 15:09:18 22° NW 15:10:34 35° WSW 15:13:11 10° S
IRS-1A Rocket 4.2 15:05:19 10° SSE 15:10:58 75° ENE 15:14:33 23° N
Nadezhda 3 Rocket 4.4 15:05:22 10° S 15:11:41 54° ESE 15:15:00 28° NE
Cosmos 1766 Rocket 4.2 15:10:17 15° NNW 15:13:44 52° WSW 15:18:03 10° S
Meteor 1-21 4.3 15:13:12 10° S 15:19:04 85° ESE 15:22:06 30° NNE
Cosmos 1607 4.3 15:13:19 10° NW 15:19:42 68° SW 15:26:09 10° SSE
Cosmos 1818 4.4 15:15:44 10° SW 15:20:45 40° WNW 15:23:18 25° NNW
Meteor 2-13 Rocket 4.4 15:14:47 10° S 15:20:58 88° E 15:24:15 29° N
CZ-4B R/B 3.6 15:16:25 10° SSE 15:21:45 70° ENE 15:24:20 31° N
Meteor 2-10 Rocket 4.5 15:20:32 29° NE 15:22:21 36° E 15:27:35 10° SSE
Cosmos 1805 Rocket 4.0 15:25:48 39° NE 15:26:44 44° E 15:30:58 10° SSE
CSL-04 DEB 4.2 15:28:36 10° SSE 15:32:29 67° ENE 15:33:08 55° NNE
Cosmos 2082 3.7 15:33:07 21° NNW 15:37:09 89° SW 15:42:55 10° SSE
BREEZE-M DEB (TANK) 4.3 15:19:53 10° WSW 15:38:36 86° NNW 15:41:04 30° ENE
Sich 1 2.9 15:37:21 45° NNW 15:38:36 86° W 15:42:52 10° S
ISS -1.7 15:36:27 10° W 15:39:33 30° SSW 15:42:38 10° SE
SL-16 R/B 2.6 15:34:19 10° SSW 15:39:55 55° WNW 15:42:20 32° N
CZ-2C R/B 3.8 15:39:52 41° NNW 15:41:17 66° WNW 15:45:46 10° SSW
IRS-1C Rocket 4.2 15:36:45 10° SSE 15:42:02 58° E 15:43:42 40° NNE
SME Rocket 4.4 15:37:50 29° NNE 15:42:39 89° ESE 15:48:30 10° SSW
CZ-4B R/B 3.6 15:38:55 10° S 15:42:41 49° WSW 15:44:31 27° NW
Cosmos 2184 Rocket 4.2 15:39:05 22° NNW 15:43:10 69° W 15:49:27 10° S
Okean O Rocket 2.7 15:40:49 10° S 15:45:00 41° WSW 15:47:59 17° NW
Okean-O 3.5 15:42:16 10° S 15:46:33 46° WSW 15:49:10 21° NW
Cosmos 1500 Rocket 3.5 15:45:46 51° NNE 15:46:49 75° E 15:51:20 10° SSE
Cosmos 2112 Rocket 4.2 15:47:04 25° NNW 15:50:16 73° WSW 15:55:41 10° SSE
Cosmos 1703 3.6 15:50:30 10° SSW 15:53:44 42° W 15:53:57 41° WNW
Cosmos 2056 Rocket 3.6 15:49:33 10° SSW 15:54:59 74° WNW 15:56:47 43° N
Cosmos 1867 4.3 15:53:41 10° NW 15:58:57 53° SW 16:04:17 10° SSE
NOSS 3-4 (A) 4.0 15:52:03 10° SSW 15:59:15 58° SE 16:02:45 27° ENE
NOSS 3-4 (C) 4.0 15:52:12 10° SSW 15:59:25 57° SE 16:02:55 26° ENE
Cosmos 2219 4.0 15:54:48 10° NW 16:00:21 49° WSW 16:05:56 10° SSE
Cosmos 2327 Rocket 4.5 15:57:49 38° N 16:00:22 73° E 16:06:39 10° SSE
DELTA 2 DEB (DPAF) 3.6 16:01:07 70° NNW 16:01:25 76° WNW 16:05:16 10° SSW
CZ-2C R/B 3.3 16:00:56 36° NNE 16:03:10 64° E 16:06:38 10° S
Cosmos 1943 3.1 15:57:38 10° SSW 16:03:23 85° ESE 16:05:15 45° NNE
Cosmos 2341 Rocket 4.3 16:02:12 38° NNE 16:04:24 56° E 16:10:36 10° SSE
Cosmos 1862 Rocket 4.4 16:03:13 10° S 16:07:16 35° ESE 16:07:50 34° E
ATLAS 5 CENTAUR R/B 3.0 16:01:56 10° SSW 16:07:34 41° SE 16:10:05 24° E
Terra 4.0 16:04:30 10° SSW 16:08:10 22° WSW 16:11:50 10° WNW
Cosmos 1408 Rocket 4.0 16:07:02 40° NW 16:08:16 55° W 16:12:33 10° S
PSLV R/B 3.4 16:08:27 65° N 16:09:01 81° WNW 16:13:19 10° SSW
CZ-4C R/B 3.2 16:13:47 62° SW 16:13:47 62° SW 16:16:40 10° SSW
Cosmos 1844 Rocket 2.6 16:17:27 46° N 16:19:10 76° ENE 16:24:52 10° SSE
Meteor 2-19 Rocket 4.4 16:15:23 10° S 16:21:34 81° E 16:23:35 45° NNE
Cosmos 1331 Rocket 4.1 16:16:22 10° SSW 16:21:43 70° ESE 16:23:07 48° NE
Cosmos 1953 4.3 16:22:27 16° ESE 16:22:27 16° ESE 16:24:22 10° SE
Okean 3 3.6 16:18:46 10° SSW 16:22:46 56° W 16:23:04 54° WNW
Cosmos 2263 Rocket 4.3 16:20:59 10° WNW 16:25:33 24° SW 16:30:08 10° S
Ariane Rocket 3.3 16:21:30 10° S 16:26:36 62° WSW 16:28:28 37° NW
Cosmos 2228 Rocket 3.7 16:22:51 10° S 16:27:08 44° ESE 16:27:38 42° E
GP-B 4.3 16:23:27 10° SSW 16:27:30 35° W 16:28:48 29° WNW
Cosmos 1048 Rocket 4.1 16:26:41 43° NNW 16:28:30 77° WSW 16:33:51 10° SSE
Helios 1B rocket 2.7 16:25:41 10° S 16:29:14 49° WSW 16:29:29 48° W
Cosmos 1707 Rocket 3.7 16:25:39 10° S 16:30:04 61° E 16:30:29 58° ENE
Cosmos 1743 Rocket 4.0 16:30:51 46° WNW 16:31:44 55° W 16:36:06 10° S
Cosmos 1603 3.7 16:30:21 10° SSW 16:36:10 77° ESE 16:37:52 47° NE
Cosmos 1666 Rocket 3.4 16:44:33 76° N 16:44:55 89° W 16:49:28 10° S
USA 281 3.9 16:40:19 10° SSE 16:46:41 50° WSW 16:51:39 17° NW
Cosmos 2218 Rocket 4.0 16:45:20 44° NNW 16:47:36 83° W 16:54:07 10° S
Cosmos 1758 4.0 16:49:32 42° W 16:49:35 42° WSW 16:53:11 10° S
ARIANE 5 R/B 3.7 16:51:42 10° SSE 16:55:44 32° E 16:55:44 32° E
CZ-4C R/B 4.2 16:50:37 10° WNW 16:58:32 39° SW 17:05:06 10° SSE
Meteor 1-22 Rocket 4.1 16:58:44 54° N 17:00:06 86° E 17:05:43 10° SSE
Cosmos 1452 Rocket 3.5 16:57:33 10° SSW 17:02:50 69° WNW 17:03:38 59° NNW
BlueWalker 3 2.7 17:04:34 43° SE 17:04:34 43° SE 17:07:08 10° SE
Cosmos 614 Rocket 3.9 17:02:41 59° NNW 17:03:40 83° WSW 17:08:53 10° SSE
IDEFIX/ARIANE 42P 4.3 17:02:17 17° ENE 17:04:59 25° ESE 17:09:16 10° S
Meteor 1-24 Rocket 3.8 16:59:35 10° S 17:05:32 74° ESE 17:07:01 50° NNE
Cosmos 44 Rocket 4.0 17:09:11 40° ENE 17:09:11 40° ENE 17:13:29 10° SE
Meteor 2-15 4.4 17:10:37 50° N 17:12:20 81° E 17:18:33 10° S
Cosmos 1844 4.4 17:10:46 27° WNW 17:13:28 47° WSW 17:19:00 10° SSE
Cosmos 1633 Rocket 3.4 17:13:17 51° W 17:13:39 53° WSW 17:17:58 10° S
Spot 1 4.3 17:13:57 58° WNW 17:14:07 59° W 17:18:44 10° SSW
Meteor 2-14 Rocket 4.4 17:07:58 10° S 17:14:12 89° E 17:15:56 50° N
SAR-Lupe-2 4.2 17:11:10 10° S 17:14:27 51° SW 17:14:27 51° SW
Cosmos 1703 Rocket 3.8 17:11:12 10° S 17:15:37 60° E 17:15:58 57° ENE
Okean 1-7 3.5 17:12:32 10° SSW 17:16:39 48° W 17:16:39 48° W
ISS -1.0 17:14:20 10° SW 17:17:03 21° S 17:19:47 10° SE
CZ-2C R/B 3.6 17:22:16 46° NW 17:23:32 55° W 17:29:18 10° SSW
Cosmos 1328 4.0 17:19:59 10° SSW 17:23:08 59° SW 17:23:08 59° SW
Cosmos 1821 Rocket 4.2 17:22:28 42° NW 17:24:32 63° W 17:30:44 10° S
DELTA 2 R/B (1) 3.9 17:26:51 45° NE 17:26:51 45° NE 17:31:01 10° E
Intercosmos 25 Rocket 3.8 17:24:34 10° S 17:28:16 63° E 17:28:50 57° ENE
Cosmos 1934 Rocket 4.3 17:28:38 41° NE 17:30:27 56° E 17:36:33 10° SSE
Cosmos 1727 Rocket 4.0 17:27:13 10° SSW 17:33:28 73° W 17:35:14 48° NNW
Cosmos 1470 Rocket 4.0 17:34:29 47° W 17:34:49 48° WSW 17:39:05 10° S
Cosmos 1302 Rocket 4.1 17:35:24 10° SSW 17:40:32 56° WNW 17:41:06 53° NW
Meteor 2-5 Rocket 4.0 17:36:12 10° SSW 17:42:09 63° W 17:43:35 48° NNW
Cosmos 1933 Rocket 3.4 17:42:50 78° NNW 17:43:08 89° WSW 17:47:37 10° S
Meteor 2-15 Rocket 4.4 17:41:51 48° NNW 17:43:42 82° W 17:49:57 10° S
Meteor 2-8 Rocket 4.5 17:42:05 47° NNE 17:43:56 72° E 17:50:11 10° SSE
Meteor 1-16 Rocket 4.0 17:45:51 58° N 17:46:58 90° E 17:52:25 10° S
MSX 4.1 17:47:12 35° NE 17:49:36 63° ESE 17:55:23 10° S
NOSS 3-4 (A) 4.4 17:43:53 10° SW 17:49:39 30° WNW 17:50:08 29° WNW
NOSS 3-4 (C) 4.4 17:44:01 10° SW 17:49:49 30° WNW 17:50:19 30° WNW
ATLAS 5 CENTAUR R/B 2.8 17:45:07 10° SW 17:49:31 32° WNW 17:49:31 32° WNW
ALOS 2 2.5 17:47:26 10° SSE 17:51:57 84° ENE 17:52:20 74° N
Cosmos 2123 Rocket 3.9 17:47:05 10° S 17:53:27 87° E 17:55:34 45° N
CZ-2D R/B 4.1 17:49:30 10° ENE 17:53:44 24° ESE 17:58:02 10° S
Cosmos 1953 3.4 17:56:49 32° WSW 17:56:49 32° WSW 18:00:09 10° S
Cosmos 839 Rocket 4.1 17:50:40 10° SSW 17:56:52 77° SE 18:00:28 27° NE
Cosmos 1269 Rocket 4.5 17:57:37 42° NE 17:58:41 49° ENE 18:03:48 10° SSE
Meteor 2-21 Rocket 4.4 17:53:51 10° SSW 18:00:05 75° W 18:01:57 47° NNW
Cosmos 921 Rocket 2.7 18:00:32 84° NNW 18:00:40 90° NNE 18:04:53 10° SSE
Cosmos 2292 Rocket 3.8 17:57:38 10° S 18:01:56 79° E 18:03:02 54° NNE
Cosmos 1869 Rocket 3.5 18:07:32 64° NW 18:08:01 71° W 18:12:30 10° S
ACS3 Solar Sail 4.1 18:04:11 10° ENE 18:08:16 19° ESE 18:12:20 10° SSE
MetOp-A 3.2 18:04:56 10° S 18:08:48 73° WSW 18:08:49 73° WSW
ARGOS Delta rocket 3.9 18:12:51 50° NNE 18:14:07 79° ESE 18:19:13 10° S
Cosmos 1733 Rocket 3.3 18:19:33 50° NE 18:20:21 60° E 18:24:47 10° SSE
In-Cosmos 22 Rocket 4.3 18:14:35 10° S 18:20:30 82° E 18:22:51 38° NNE
Meteor 1-21 Rocket 4.5 18:14:40 10° S 18:20:35 68° ESE 18:23:14 33° NNE
USA 276 4.5 18:19:50 14° SW 18:21:25 21° S 18:23:47 10° SE
CZ-2C R/B 3.7 18:16:26 10° SSE 18:21:30 36° E 18:23:49 26° NE
ADEOS II 3.7 18:23:01 10° NE 18:27:33 31° ESE 18:32:09 10° S
Cosmos 1833 Rocket 2.7 18:23:26 10° SSW 18:29:03 64° WNW 18:30:41 45° N
SJ 16-02 3.7 18:29:17 11° ENE 18:31:01 14° E 18:33:09 10° ESE
USA 215 3.4 18:24:44 10° SE 18:31:16 61° NE 18:33:53 37° NNW
ARIANE 5 R/B 4.1 18:28:09 10° S 18:31:56 27° WSW 18:33:07 24° W
Resurs 1-4 Rocket 2.8 18:29:31 21° NE 18:32:53 51° ESE 18:38:02 10° S
Cosmos 2242 Rocket 3.5 18:30:39 10° S 18:35:08 90° WSW 18:36:07 55° N
Cosmos 1943 Rocket 2.3 18:33:32 42° N 18:35:24 66° ENE 18:41:02 10° SSE
Cosmos 2082 Rocket 3.6 18:33:31 10° SSW 18:38:51 37° SE 18:44:08 10° ENE
Cosmos 2278 Rocket 2.3 18:38:44 40° N 18:40:46 68° ENE 18:46:28 10° SSE
BlueWalker 3 4.0 18:38:19 10° WSW 18:41:23 24° SSW 18:44:27 10° SE
IDEFIX/ARIANE 42P 3.0 18:42:58 40° NW 18:44:09 46° W 18:49:16 10° SSW
FENGYUN 3A 3.7 18:44:17 40° N 18:46:10 67° WNW 18:51:37 10° SSW
SeaSat 1 2.3 18:44:48 35° NNE 18:46:54 80° WNW 18:51:53 10° SSW
Cosmos 1763 Rocket 4.0 18:46:53 10° SSW 18:52:07 58° ESE 18:56:36 14° NE
USA 305 3.6 18:53:33 25° E 18:53:33 25° E 18:55:40 10° ESE
RESURS DK-1 3.0 18:49:28 10° SW 18:52:50 38° W 18:52:50 38° W
Cosmos 1140 Rocket 3.7 18:52:12 38° NW 18:54:05 62° WSW 18:59:20 10° SSE
Cosmos 2346 Rocket 4.4 18:47:58 10° S 18:54:15 79° W 18:57:20 32° N
ISS -2.3 18:51:13 10° SW 18:54:29 40° SSE 18:57:45 10° E
Cosmos 1674 Rocket 3.8 18:50:53 10° S 18:55:24 69° E 18:57:21 33° NNE
Cosmos 1447 Rocket 4.4 18:49:19 10° S 18:55:38 82° W 18:59:00 30° N
ALOS 2.9 18:52:40 20° NE 18:55:40 52° ESE 19:00:10 10° S
NPP 4.1 18:56:06 36° NW 18:57:35 44° W 19:02:48 10° SSW
USA 267 4.1 18:58:14 10° ENE 19:04:35 53° SSE 19:10:59 10° SW
Cosmos 1025 Rocket 3.3 19:01:50 10° S 19:06:15 66° E 19:08:35 27° NNE
Cosmos 1378 Rocket 3.5 19:02:01 10° SSW 19:06:19 63° W 19:07:30 44° NNW
ADEOS Rocket 3.7 19:02:47 10° NNE 19:09:30 59° ESE 19:15:36 10° S
H-2A R/B 2.7 19:06:44 18° NE 19:09:30 49° ESE 19:13:25 10° S
DELTA 2 R/B (1) 3.7 19:07:32 17° W 19:11:36 49° NNW 19:16:57 10° ENE
Timation 2 Rocket 4.0 19:10:58 30° NW 19:14:02 68° WSW 19:20:13 10° SSE
Cosmos 1340 Rocket 3.8 19:16:00 27° W 19:16:44 29° WSW 19:20:11 10° S
H-2A R/B 3.0 19:12:51 10° NE 19:18:02 50° ESE 19:23:20 10° S
NOAA 11 4.3 19:18:16 28° N 19:21:07 61° W 19:26:38 10° SSW
Cosmos 1606 3.7 19:21:50 19° SW 19:21:50 19° SW 19:23:17 10° SSW
Cosmos 407 Rocket 3.6 19:20:59 31° NW 19:23:33 67° WSW 19:28:56 10° SSE
Cosmos 540 Rocket 3.4 19:18:53 10° SSW 19:24:07 89° WNW 19:28:27 15° NNE
Centaur D-1A AC-31 4.3 19:19:37 10° NNE 19:24:53 17° ENE 19:38:46 10° E
Cosmos 1441 Rocket 2.9 19:21:59 10° SSW 19:25:23 60° W 19:26:01 48° NW
Cosmos 2173 Rocket 4.0 19:28:50 23° N 19:33:02 84° W 19:39:32 10° S
CZ-2D R/B 2.4 19:30:18 25° NNW 19:33:17 54° W 19:38:43 10° SSW
Cosmos 2100 Rocket 4.0 19:30:54 24° NNW 19:35:04 78° W 19:41:33 10° S
Cosmos 1190 Rocket 4.1 19:32:18 25° N 19:35:22 73° ENE 19:40:38 10° SSE
Cosmos 1300 Rocket 3.9 19:32:46 22° N 19:35:29 65° E 19:39:56 10° SSE
Cosmos 1954 Rocket 4.3 19:33:28 22° N 19:36:49 61° ENE 19:42:04 10° SSE
AQUA 4.2 19:34:40 10° NNE 19:39:19 63° ESE 19:44:02 10° S
Cosmos 2221 Rocket 3.9 19:43:23 10° SSW 19:47:52 52° W 19:50:29 23° NNW
Cosmos 1725 Rocket 4.0 19:44:11 17° N 19:49:12 84° E 19:55:29 10° S
ACS3 Solar Sail 1.8 19:44:11 10° N 19:50:24 80° WNW 19:56:35 10° SSW
BREEZE-M DEB (TANK) 2.6 19:46:16 10° WSW 19:52:39 77° NNW 19:55:05 10° NE
Iridium 4 Rocket 4.3 19:47:30 10° NNE 19:53:07 59° E 19:58:55 10° S
Cosmos 841 Rocket 4.3 19:49:50 10° SSW 19:54:56 53° ESE 20:00:00 10° NE
USA 276 3.6 19:52:18 10° SW 19:55:02 36° SSE 19:57:54 10° E
Cosmos 1812 3.9 19:53:43 11° NNE 19:56:06 27° E 19:58:39 10° SSE
ASTEX 1 4.4 19:55:57 10° SSE 20:00:43 44° E 20:05:23 10° NNE
Envisat 3.7 19:58:29 20° NNW 20:01:18 35° W 20:06:00 10° SSW
CZ-2C R/B 3.7 19:56:45 10° S 20:01:38 34° WSW 20:05:16 16° WNW
ATLAS 2AS CENTAUR R/B 3.6 19:54:59 10° SSW 20:02:19 57° SE 20:09:34 10° NE
ADEOS II 2.7 20:03:37 18° NNW 20:06:59 37° W 20:11:53 10° SSW
Cosmos 1782 Rocket 3.6 20:04:38 19° NNW 20:07:42 64° W 20:12:09 10° S
Cosmos 1656 Rocket 3.6 20:03:46 18° NNW 20:07:58 89° NE 20:13:29 10° SSE
SJ 16-02 1.5 20:05:49 20° NW 20:08:35 56° WSW 20:12:54 10° S
Cosmos 1459 Rocket 4.4 20:04:37 18° NW 20:08:56 47° WSW 20:14:52 10° S
Cosmos 1869 3.3 20:07:26 14° N 20:10:30 71° E 20:14:13 10° SSE
Cosmos 2251 Rocket 4.0 20:07:43 18° NW 20:11:26 48° WSW 20:16:33 10° S
Resurs 1-4 Rocket 3.4 20:10:34 17° NW 20:12:55 22° W 20:17:01 10° SW
COSMOS 2406 3.2 20:07:47 10° SSW 20:13:36 80° WNW 20:19:19 10° NNE
USA 215 4.0 20:07:51 10° SE 20:14:10 50° SSW 20:20:28 10° W
Cosmos 2016 Rocket 4.0 20:11:02 14° NNW 20:16:18 66° W 20:22:28 10° S
Cosmos 968 Rocket 4.2 20:11:31 10° N 20:16:28 50° ENE 20:21:27 10° SSE
Cosmos 2369 Rocket 2.8 20:11:37 10° N 20:17:07 55° ENE 20:22:40 10° SSE
Cosmos 1400 Rocket 4.0 20:15:39 10° NNE 20:19:09 38° E 20:22:45 10° SSE
USA 305 3.6 20:17:01 12° W 20:19:27 34° SSW 20:22:58 10° SE
Cosmos 1943 Rocket 3.9 20:15:16 10° W 20:19:39 22° SW 20:24:03 10° S
Cosmos 371 Rocket 3.5 20:16:43 17° NW 20:20:23 59° WSW 20:25:10 10° SSE
ARGOS 3.3 20:16:07 10° NNE 20:21:29 82° ESE 20:26:57 10° SSW
Cosmos 1975 Rocket 3.0 20:17:53 10° SSW 20:22:16 74° W 20:26:35 10° N
Cosmos 2082 Rocket 2.8 20:17:40 10° SW 20:22:53 36° WNW 20:28:01 10° N
BREEZE-M DEB (TANK) 4.3 20:12:22 10° WSW 20:23:20 62° SSE 20:26:49 10° E
Cosmos 468 Rocket 4.4 20:19:07 10° SSW 20:24:08 43° WNW 20:29:06 10° N
SeaSat 1 4.4 20:24:25 10° WNW 20:24:57 10° W 20:25:49 10° W
Cosmos 2278 Rocket 3.9 20:20:58 10° W 20:25:22 22° SW 20:29:48 10° S
DEBRIS 4.5 20:14:49 10° WNW 20:29:31 69° SSW 20:33:28 10° ESE
FALCON 9 R/B 4.4 20:22:07 12° NW 20:30:12 22° N 20:34:41 10° ENE
ISS -3.2 20:28:05 10° WSW 20:31:16 36° NW 20:34:25 10° NNE
ALOS 3.9 20:30:43 13° WNW 20:32:55 17° W 20:35:57 10° SW
MOZ.5/SAFIR/RUBIN 5/SL-8 4.0 20:29:47 10° SSE 20:34:31 71° ENE 20:39:12 10° N
Lacrosse 5 rocket 1.7 20:35:25 12° NNW 20:38:20 41° NE 20:41:34 10° ESE
CZ-2C R/B 2.3 20:34:21 10° NNE 20:39:03 89° NW 20:43:43 10° SSW
Cosmos 1602 3.0 20:37:47 10° S 20:40:51 88° ENE 20:43:52 10° N
SWARM A 4.4 20:40:56 10° S 20:44:17 55° W 20:47:33 10° NNW
H-2A R/B 3.8 20:43:08 11° WNW 20:45:06 14° W 20:47:16 10° WSW
USA 267 3.4 20:41:09 10° NNE 20:47:33 55° NW 20:54:02 10° SW
Okean 1 Rocket 4.5 20:45:15 10° NNE 20:49:25 40° E 20:53:39 10° SSE
Cosmos 2263 4.3 20:48:29 10° NNW 20:54:07 80° ENE 20:59:48 10° SSE
ADEOS Rocket 4.2 20:49:43 10° NNW 20:55:14 25° W 21:00:24 10° SW
Cosmos 332 Rocket 3.9 20:51:42 10° NNW 20:56:30 87° ENE 21:01:24 10° SSE
Lacrosse 4 Rocket 2.3 20:53:29 10° N 20:57:16 43° ENE 21:01:11 10° SE
Okean 2 Rocket 3.7 20:52:55 10° N 20:57:22 60° E 21:01:53 10° SSE
H-2A R/B 3.4 20:53:19 10° NW 20:57:34 23° W 21:01:55 10° SW
Cosmos 2297 3.8 20:52:31 10° NNW 20:58:13 76° WSW 21:04:01 10° SSE
Cosmos 1862 3.1 20:59:15 10° S 21:02:57 87° WNW 21:06:34 10° N
H-2A R/B 3.0 21:01:44 10° S 21:05:27 39° WSW 21:09:11 10° NW
